Terminal Aerodrome Forecast
Issued by NWS

Current Version | Previous Version | Text Only | Print | Product List | Glossary Off
Versions: 1 2 3 4 5 6 7 8 9 10 11 12 13 14 15 16 17 18 19 20 21 22 23 24 25 26 27 28 29 30 31 32 33 34 35 36 37 38 39

000
FTUS41 KRNK 162327
TAFLWB
TAF
KLWB 162327Z 1700/1724 26006KT P6SM VCSH SCT020 OVC035
      TEMPO 1700/1704 -SHRA OVC020
     FM170400 28006KT P6SM OVC015
     FM171400 29010KT P6SM SCT010 OVC025
     FM172200 29004KT P6SM BKN025=

USA.gov is the U.S. government's official web portal to all federal, state and local government web resources and services.